Regional Weather Roundup
Issued by NWS

Home | Current Version | Previous Version | Text Only | Print | Product List | Glossary Off
Versions: 1 2 3 4 5 6 7 8 9 10 11 12 13 14 15 16 17 18 19 20 21 22 23 24 25 26 27 28 29 30 31 32 33 34 35 36 37 38 39 40 41 42 43 44 45 46 47 48 49 50

000
ASUS43 KIND 170859
RWRIN

WEATHER ROUNDUP FOR INDIANA
NATIONAL WEATHER SERVICE INDIANAPOLIS IN
500 AM EDT THU APR 17 2014

NOTE: "FAIR" INDICATES FEW OR NO CLOUDS BELOW 12,000 FEET WITH NO
SIGNIFICANT WEATHER AND/OR OBSTRUCTIONS TO VISIBILITY.

* - STATION DOES NOT REPORT WEATHER SUCH AS PRECIPITATION OR FOG.

+ - STATION NOT QUALITY CONTROLLED BY THE NATIONAL WEATHER SERVICE.
    USE DATA WITH CAUTION...ESPECIALLY DEWPOINT AND RELATIVE
    HUMIDITY OBSERVATIONS.

INZ001>003-010>013-019-020-171000-
NORTHWEST INDIANA

CITY           SKY/WX    TMP DP  RH WIND       PRES   REMARKS
GARY /AIRPORT/ MOCLDY    43  25  49 SE13G20   30.16F
LA PORTE +     CLOUDY    38  24  58 SE6       30.20F
MONTICELLO +   PTCLDY    37  27  69 SE6       30.19F
RENSSELAER +   MOCLDY    37  28  70 CALM      30.19S
VALPARAISO     CLOUDY    37  25  61 SE8       30.19S

$$

LMZ046-743>745-171000-
SOUTHERN LAKE MICHIGAN

STATION/POSITION TIME  TEMP WIND        PRES
                       AIR  DIR/SP/G
                 (UTC) (F)  (DEG/KT/KT) (MB)
MICHIGAN CITY    0800   42  130/ 13/ 22   N/A

$$

INZ004-005-014>016-021>024-171000-
NORTH CENTRAL INDIANA

CITY           SKY/WX    TMP DP  RH WIND       PRES   REMARKS
GOSHEN         MOCLDY    36  27  69 SE10      30.24F
PERU/GRISSOM   CLEAR     33  30  89 SE10      30.21F WCI  24
SOUTH BEND     NOT AVBL

$$

INZ006>009-017-018-025>027-171000-
NORTHEAST INDIANA

CITY           SKY/WX    TMP DP  RH WIND       PRES   REMARKS
ANGOLA *+      CLEAR     34  25  69 SE9       30.27S WCI  26
FORT WAYNE     PTCLDY    29  23  78 E6        30.27S WCI  23

$$

INZ028-029-035-036-043>045-051>053-171000-
WEST CENTRAL INDIANA

CITY           SKY/WX    TMP DP  RH WIND       PRES   REMARKS
GREENCASTLE +  PTCLDY    34  27  75 SE6       30.21F WCI  29
LAFAYETTE      PTCLDY    38  25  59 SE7       30.19F
TERRE HAUTE    CLEAR     38  26  62 SE6       30.20F

$$

INZ030>032-037>040-046>048-054>057-064-065-171000-
CENTRAL INDIANA

CITY           SKY/WX    TMP DP  RH WIND       PRES   REMARKS
INDIANAPOLIS   PTCLDY    37  23  56 SE8       30.22S
-EAGLE CREEK   CLEAR     38  23  55 SE5       30.22S
KOKOMO *+      CLEAR     32  25  74 SE6       30.23S WCI  26
MT COMFORT *+  CLEAR     36  27  69 SE6       30.24S
SHELBYVILLE    CLEAR     37  25  61 SE6       30.24S

$$

INZ033-034-041-042-049-050-058-059-171000-
EAST CENTRAL INDIANA

CITY           SKY/WX    TMP DP  RH WIND       PRES   REMARKS
MUNCIE         CLEAR     38  23  55 SE8       30.24S

$$

INZ060-061-067>069-081>083-085>088-171000-
SOUTHWEST INDIANA

CITY           SKY/WX    TMP DP  RH WIND       PRES   REMARKS
EVANSVILLE     PTCLDY    40  32  73 CALM      30.23R
HUNTINGBURG *+ CLEAR     43  25  49 CALM      30.24R

$$

INZ062-063-066-070>080-084-089>092-171000-
SOUTH CENTRAL AND SOUTHEAST INDIANA

CITY           SKY/WX    TMP DP  RH WIND       PRES   REMARKS
BLOOMINGTON    PTCLDY    41  23  48 SE3       30.22S

$$




USA.gov is the U.S. government's official web portal to all federal, state and local government web resources and services.